Regional Weather Roundup
Issued by NWS

Home | Current Version | Previous Version | Graphics & Text | Print | Product List | Glossary On
Versions: 1 2 3 4 5 6 7 8 9 10 11 12 13 14 15 16 17 18 19 20 21 22 23 24 25 26 27 28 29 30 31 32 33 34 35 36 37 38 39 40 41 42 43 44 45 46 47 48 49
000
ASUS45 KCYS 122010
RWRWY

WYOMING REGIONAL WEATHER ROUNDUP
NATIONAL WEATHER SERVICE CHEYENNE WY
100 PM MST FRI FEB 12 2016

NOTE:  "FAIR" INDICATES FEW OR NO CLOUDS BELOW 12,000 FEET
WITH NO SIGNIFICANT WEATHER AND/OR OBSTRUCTIONS TO VISIBILITY.

WYZ001-122100-
YELLOWSTONE NATIONAL PARK

CITY           SKY/WX    TMP DP  RH WIND       PRES   REMARKS
LK YELLOWSTONE   N/A     43  16  33 SW6       30.31F
W YELLOWSTONE  NOT AVBL

$$
WYZ002>013-054>058-071-098>099-122100-
NORTHERN WYOMING

CITY           SKY/WX    TMP DP  RH WIND       PRES   REMARKS
JACKSON        SUNNY     32  28  86 CALM      30.32F
CODY           FAIR      54  25  32 E8        30.16F
GREYBULL       FAIR      50  30  46 VRB5      30.18F
WORLAND        FAIR      48  25  40 N3        30.19F
SHERIDAN       PTSUNNY   45  31  58 VRB6      30.20F
BUFFALO        CLOUDY    43  31  62 SE13      30.20F
GILLETTE       CLOUDY    36  30  79 S10       30.25F WCI  28
HULETT         CLOUDY    36  28  75 CALM      30.28F
NEWCASTLE      CLOUDY    32  30  93 SE9       30.30F WCI  24

$$
WYZ014>020-022>026-101>103-122100-
CENTRAL WYOMING

CITY           SKY/WX    TMP DP  RH WIND       PRES   REMARKS
BIG PINEY      FAIR      42  26  53 VRB3      30.34F
PINEDALE         N/A     43  27  52 N3        30.34F
DUBOIS         FAIR      52  14  22 W21       30.23F
LANDER         FAIR      41  28  60 SE3       30.19F
RIVERTON       FAIR      43  30  60 SE3       30.22F
CASPER         FAIR      44  29  55 NE7       30.23F
DOUGLAS        CLOUDY    46  29  51 SE10      30.27F

$$
WYZ021-027>030-104>119-122100-
SOUTHERN WYOMING

CITY           SKY/WX    TMP DP  RH WIND       PRES   REMARKS
EVANSTON       FAIR      40  18  41 SW6       30.35F
KEMMERER       FAIR      45  18  33 CALM      30.35F
FORT BRIDGER   CLEAR     45  25  45 W8        30.37F
ROCK SPRINGS   FAIR      47  21  35 W10       30.33F
DIXON          FAIR      38  24  55 CALM      30.40F
RAWLINS        FAIR      44  21  40 W16       30.30F
SARATOGA       MOCLDY    41  28  60 SW13      30.32F
LARAMIE        FAIR      49  27  42 NE7       30.27F
CHEYENNE       FAIR      51  27  39 S10       30.27F
TORRINGTON     FAIR      43  30  60 E14G20    30.29F
PINE BLUFFS    FAIR      50  28  43 NE7       30.28F

$$



USA.gov is the U.S. government's official web portal to all federal, state and local government web resources and services.